Weather History for KBWG - October, 2014

Change the Weather History Date:

Wednesday, October 15, 2014

  Actual Average Record
Temperature  
Mean Temperature 56 °F 59 °F  
Max Temperature 58 °F 72 °F 87 °F (1924)
Min Temperature 54 °F 46 °F 28 °F (1901)
Degree Days  
Heating Degree Days 9 7  
Month to date heating degree days 49 80  
Since 1 July heating degree days 73 116  
Cooling Degree Days 0 1  
Month to date cooling degree days 29 24  
Year to date cooling degree days 1485 1479  
Growing Degree Days 6 (Base 50)    
Moisture  
Dew Point 52 °F    
Average Humidity 85    
Maximum Humidity 93    
Minimum Humidity 77    
Precipitation  
Precipitation 0.55 in 0.11 in 1.15 in (1974)
Month to date precipitation 4.98 1.63  
Year to date precipitation 41.51 39.12  
Snow  
Snow 0.00 in 0.00 in 0.00 in ()
Month to date snowfall 0.0 0.0  
Since 1 July snowfall 0.0 0.0  
Since 1 September snowfall 0.0 0.0  
Snow Depth 0.00 in    
Sea Level Pressure  
Sea Level Pressure 29.80 in    
Wind  
Wind Speed 9 mph (WSW)    
Max Wind Speed 16 mph    
Max Gust Speed 21 mph    
Visibility 7 miles    
Events Rain    
T = Trace of Precipitation, MM = Missing Value Source: NWS Daily Summary

Daily Weather History Graph

Daily Weather History Graph

Search for Another Location

Airport or City:

Trip Planner

Search our weather history database for the weather conditions in past years. The results will help you decide how hot, cold, wet, or windy it might be!

Date:

Astronomy

Oct. 15, 2014 Rise Set
Actual Time 6:53 AM CDT 6:08 PM CDT
Civil Twilight 6:27 AM CDT 6:35 PM CDT
Nautical Twilight 5:57 AM CDT 7:05 PM CDT
Astronomical Twilight 5:26 AM CDT 7:35 PM CDT
Moon No Moon Rise 1:31 PM CDT (10/15)
Length of Visible Light 12h 07m
Length of Day
11h 15m
Waning Gibbous, 51% of the Moon is Illuminated
Oct 15
Waning Gibbous
Oct 15
Last Quarter
Oct 23
New
Oct 30
First Quarter
Nov 6
Full

Hourly Weather History & Observations

Time (CDT) Temp. Dew Point Humidity Pressure Visibility Wind Dir Wind Speed Gust Speed Precip Events Conditions
12:02 AM 57.9 °F 51.1 °F 78% 29.78 in 10.0 mi SSW 10.4 mph - N/A   Overcast
12:53 AM 57.0 °F 50.0 °F 77% 29.78 in 10.0 mi SSW 11.5 mph - N/A   Overcast
1:03 AM 57.0 °F 50.0 °F 77% 29.79 in 10.0 mi SW 12.7 mph - N/A   Overcast
1:51 AM 55.4 °F 51.8 °F 88% 29.78 in 3.0 mi WSW 8.1 mph - 0.02 in Rain Rain
1:53 AM 55.0 °F 52.0 °F 89% 29.78 in 3.0 mi WSW 8.1 mph - 0.02 in Rain Rain
2:21 AM 55.0 °F 52.0 °F 89% 29.78 in 10.0 mi WSW 8.1 mph - 0.00 in   Overcast
2:30 AM 55.0 °F 52.0 °F 89% 29.78 in 10.0 mi WSW 4.6 mph - 0.00 in   Overcast
2:53 AM 55.9 °F 52.0 °F 87% 29.77 in 7.0 mi SW 8.1 mph - 0.01 in Rain Light Rain
3:08 AM 55.9 °F 51.1 °F 84% 29.78 in 10.0 mi SSW 10.4 mph - 0.00 in   Overcast
3:15 AM 55.0 °F 51.1 °F 86% 29.77 in 10.0 mi SSW 6.9 mph - 0.00 in   Overcast
3:44 AM 55.9 °F 51.1 °F 84% 29.77 in 10.0 mi SSW 8.1 mph - 0.00 in   Overcast
3:53 AM 55.9 °F 52.0 °F 87% 29.76 in 10.0 mi SSW 5.8 mph - 0.00 in   Overcast
4:53 AM 55.9 °F 51.1 °F 84% 29.77 in 10.0 mi SSW 8.1 mph - N/A   Overcast
5:53 AM 55.0 °F 51.1 °F 86% 29.78 in 4.0 mi SW 10.4 mph - 0.03 in Rain Light Rain
6:04 AM 55.0 °F 51.1 °F 86% 29.79 in 5.0 mi SSW 6.9 mph - 0.02 in Rain Rain
6:12 AM 55.0 °F 51.1 °F 86% 29.79 in 5.0 mi SSW 6.9 mph - 0.03 in Rain Rain
6:53 AM 55.0 °F 52.0 °F 89% 29.79 in 7.0 mi SSW 10.4 mph - 0.05 in Rain Light Rain
7:53 AM 55.0 °F 51.1 °F 86% 29.79 in 10.0 mi SSW 11.5 mph - 0.02 in Rain Light Rain
8:36 AM 55.0 °F 52.0 °F 89% 29.80 in 3.0 mi SW 9.2 mph - 0.00 in Rain Light Rain
8:43 AM 55.0 °F 52.0 °F 89% 29.80 in 3.0 mi SSW 11.5 mph - 0.00 in Rain Light Rain
8:50 AM 55.4 °F 51.8 °F 88% 29.80 in 4.0 mi SSW 9.2 mph - 0.01 in Rain Light Rain
8:53 AM 55.0 °F 52.0 °F 89% 29.80 in 4.0 mi SSW 10.4 mph - 0.01 in Rain Light Rain
9:03 AM 55.0 °F 52.0 °F 89% 29.81 in 9.0 mi SSW 10.4 mph - 0.00 in Rain Light Rain
9:13 AM 55.9 °F 52.0 °F 87% 29.81 in 10.0 mi SSW 10.4 mph - 0.00 in Rain Light Rain
9:36 AM 55.9 °F 52.0 °F 87% 29.81 in 7.0 mi SW 11.5 mph - 0.02 in Rain Light Rain
9:43 AM 55.9 °F 52.0 °F 87% 29.80 in 4.0 mi SSW 9.2 mph - 0.02 in Rain Light Rain
9:53 AM 55.9 °F 52.0 °F 87% 29.80 in 4.0 mi SW 10.4 mph - 0.02 in Rain Light Rain
10:29 AM 57.0 °F 53.1 °F 87% 29.81 in 10.0 mi SW 10.4 mph - 0.01 in Rain Light Rain
10:40 AM 57.0 °F 53.1 °F 87% 29.81 in 10.0 mi SW 10.4 mph - 0.01 in Rain Light Rain
10:53 AM 55.9 °F 53.1 °F 90% 29.81 in 3.0 mi WSW 8.1 mph - 0.01 in Rain Light Rain
10:58 AM 55.9 °F 53.1 °F 90% 29.81 in 1.8 mi West 9.2 mph - 0.01 in Rain Light Rain
11:07 AM 55.9 °F 52.0 °F 87% 29.81 in 2.0 mi WSW 12.7 mph 18.4 mph 0.02 in Rain Light Rain
11:10 AM 55.9 °F 52.0 °F 87% 29.81 in 3.0 mi WSW 10.4 mph 18.4 mph 0.02 in Rain Light Rain
11:24 AM 57.9 °F 54.0 °F 87% 29.81 in 10.0 mi WSW 11.5 mph - 0.02 in   Overcast
11:53 AM 57.0 °F 52.0 °F 83% 29.80 in 9.0 mi SW 13.8 mph - 0.02 in Rain Light Rain
12:07 PM 57.0 °F 53.1 °F 87% 29.80 in 9.0 mi SW 15.0 mph - 0.00 in Rain Light Rain
12:37 PM 57.0 °F 52.0 °F 83% 29.80 in 10.0 mi SW 9.2 mph - 0.00 in   Overcast
12:53 PM 57.0 °F 53.1 °F 87% 29.79 in 10.0 mi WSW 8.1 mph - 0.00 in   Overcast
1:00 PM 57.9 °F 52.0 °F 81% 29.79 in 10.0 mi WSW 11.5 mph - N/A   Overcast
1:29 PM 57.0 °F 53.1 °F 87% 29.79 in 6.0 mi WSW 11.5 mph - 0.00 in Rain Light Rain
1:53 PM 57.0 °F 53.1 °F 87% 29.78 in 9.0 mi WSW 9.2 mph - 0.00 in   Overcast
2:53 PM 57.0 °F 53.1 °F 87% 29.79 in 6.0 mi WSW 9.2 mph - 0.00 in Rain Light Rain
3:14 PM 55.9 °F 52.0 °F 87% 29.79 in 2.5 mi WSW 10.4 mph - 0.02 in Rain Light Rain
3:21 PM 55.9 °F 53.1 °F 90% 29.79 in 3.0 mi West 9.2 mph - 0.02 in Rain Light Rain
3:28 PM 55.9 °F 53.1 °F 90% 29.80 in 4.0 mi West 9.2 mph - 0.03 in Rain Light Rain
3:41 PM 55.9 °F 52.0 °F 87% 29.80 in 7.0 mi WSW 10.4 mph - 0.04 in Rain Light Rain
3:53 PM 55.9 °F 52.0 °F 87% 29.80 in 5.0 mi West 9.2 mph - 0.06 in Rain Rain
4:15 PM 55.9 °F 53.1 °F 90% 29.81 in 5.0 mi West 6.9 mph - 0.04 in Rain Rain
4:53 PM 55.9 °F 52.0 °F 87% 29.81 in 6.0 mi West 8.1 mph - 0.09 in Rain Light Rain
5:26 PM 55.0 °F 52.0 °F 89% 29.82 in 5.0 mi West 6.9 mph - 0.03 in Rain Light Rain
5:53 PM 55.0 °F 52.0 °F 89% 29.82 in 4.0 mi West 6.9 mph - 0.07 in Rain Light Rain
6:02 PM 55.0 °F 52.0 °F 89% 29.82 in 4.0 mi WSW 6.9 mph - 0.01 in Rain Light Rain
6:09 PM 55.0 °F 52.0 °F 89% 29.82 in 3.0 mi WSW 6.9 mph - 0.02 in Rain Rain
6:25 PM 55.0 °F 53.1 °F 93% 29.83 in 5.0 mi WNW 5.8 mph - 0.04 in Rain Rain
6:50 PM 55.4 °F 51.8 °F 88% 29.84 in 7.0 mi West 9.2 mph - 0.07 in Rain Light Rain
6:53 PM 55.0 °F 52.0 °F 89% 29.83 in 7.0 mi West 10.4 mph - 0.07 in Rain Light Rain
7:08 PM 55.0 °F 51.1 °F 86% 29.84 in 6.0 mi West 8.1 mph - 0.02 in Rain Light Rain
7:35 PM 55.0 °F 52.0 °F 89% 29.85 in 9.0 mi West 6.9 mph - 0.03 in Rain Light Rain
7:44 PM 55.0 °F 52.0 °F 89% 29.85 in 10.0 mi West 6.9 mph - 0.03 in Rain Light Rain
7:53 PM 54.0 °F 52.0 °F 93% 29.84 in 10.0 mi West 5.8 mph - 0.04 in Rain Light Rain
8:53 PM 54.0 °F 51.1 °F 90% 29.84 in 9.0 mi WSW 5.8 mph - 0.03 in Rain Light Rain
9:53 PM 54.0 °F 51.1 °F 90% 29.86 in 10.0 mi West 6.9 mph - 0.00 in   Overcast
10:53 PM 54.0 °F 51.1 °F 90% 29.84 in 10.0 mi West 5.8 mph - N/A   Overcast
11:53 PM 54.0 °F 51.1 °F 90% 29.83 in 10.0 mi West 8.1 mph - N/A   Overcast